Weather in Novouleshkovskay

Russia / Krasnodar Krai     46°00′00″N   39°59′15″E
temp.,
°C
wind,
m/s
gust,
m/s
humid.,
%
clouds,
%
prec.,
mm/h
press.,
hPa
HPBL,
m
23 september, thu
thu2300:00+13wsw0163100 0.0 101441
03:00+12sw2268100 0.0 101425
06:00+11sw2275100 0.0 101436
09:00+13se1266100 0.0 1013303
12:00+16ssw2349100 0.0 10131289
15:00+18se114299 0.0 10121770
18:00+17ssw1148100 0.0 101247
21:00+14nnw3465100 0.0 1012443
24 september, fri
fri2400:00+14nnw2270100 0.1 1013225
03:00+13wnw1275100 0.1 1013167
06:00+12w2379100 0.1 1013224
09:00+14wsw3465100 0.1 1014731
12:00+17wsw5549100 0.1 10131832
15:00+16wsw684998 0.3 10131940
18:00+14w586498 0.1 10141046
21:00+13wsw51062100 0.1 1014934
25 september, sat
sat2500:00+13sw51065100 0.1 1013716
03:00+13sw91788100 1.1 10091201
06:00+12wsw4895100 7.3 1009413
09:00+14wsw58777 9.3 1011807
12:00+17wnw81050100 0.4 10112100
15:00+17w9125398 0.5 10131786
18:00+14w71167100 0.3 1015918
21:00+13w4107323 0.4 1017610
26 september, sun
sun2600:00+12w49785 0.1 1019423
03:00+10wsw38845 0.1 1020203
06:00+10wsw378839 0.0 1021155
09:00+14wsw486835 0.0 1021775
12:00+15wsw51167100 0.0 1020885
15:00+16wsw71272100 0.2 10191113
18:00+16wsw81472100 0.3 1017898
21:00+15wsw7138480 1.3 1017530
27 september, mon
mon2700:00+14w5108828 0.9 1017292
03:00+12wnw38900 1.1 1017187
06:00+11wnw37860 0.0 1017159
09:00+14nw46710 0.0 1017595
12:00+16nw45530 0.0 10171304
15:00+18nw34441 0.0 10171732
18:00+15n345215 0.0 101781
21:00+13ne36602 0.0 1018148